EW0349 Weather Reports


time (UTC)temp
F
wind
direction
speed
knots
gust
knots
rain 1hr
in
rain 24hr
in
rain mn
in
humidity
%
barometer
mb
20260904031556 52 203 0.0 0.0 0.04 0.46 0.46 100 1009.3
20260904030051 53 203 0.0 2.6 0.07 0.46 0.46 100 1009.4
20260904024549 53 236 0.0 3.5 0.06 0.45 0.45 100 1009.5
20260904023052 53 155 0.9 4.3 0.06 0.44 0.44 100 1009.6
20260904021537 54 178 0.0 2.6 0.05 0.42 0.42 100 1009.4
20260904020038 54 178 0.0 0.9 0.02 0.40 0.39 100 1009.4
20260904014529 54 178 0.0 1.7 0.02 0.40 0.39 100 1009.3
20260904013024 54 178 0.0 0.9 0.02 0.39 0.38 100 1009.2
20260904011521 54 178 0.0 2.6 0.02 0.38 0.37 100 1009.3
20260904010015 55 178 0.0 0.9 0.02 0.39 0.37 100 1009.3
20260904004511 55 178 0.0 5.2 0.05 0.39 0.37 100 1009.2
20260904003006 55 176 0.0 6.1 0.04 0.38 0.36 100 1009.3
20260904001502 55 173 0.0 2.6 0.04 0.37 0.35 100 1009.4
20260904000114 55 210 0.0 0.0 0.04 0.46 0.35 100 1009.5
20260903234553 55 210 0.0 1.7 0.02 0.43 0.32 100 1009.5
20260903233112 55 210 0.0 1.7 0.06 0.43 0.32 100 1009.4
20260903231547 54 161 0.0 1.7 0.06 0.42 0.31 100 1009.5
20260903224543 53 159 0.0 2.6 0.06 0.47 0.30 100 1009.6
20260903223048 54 232 0.9 3.5 0.03 0.43 0.26 100 1009.7
20260903221528 53 202 0.0 3.5 0.07 0.42 0.25 100 1009.7
20260903220023 52 199 0.0 1.7 0.07 0.43 0.25 100 1009.7
20260903214519 52 195 0.0 1.7 0.06 0.42 0.24 2 1009.9
20260903213025 53 188 0.9 6.1 0.05 0.41 0.23 22 1010.1
20260903211510 54 188 1.7 6.1 0.00 0.36 0.18 32 1010.1
20260903210006 55 176 0.0 3.5 0.00 0.37 0.18 37 1009.8
20260903204502 56 285 0.9 6.1 0.00 0.37 0.18 34 1009.7
20260903203057 57 336 3.5 6.1 0.00 0.37 0.18 22 1009.9
20260903201552 57 288 1.7 5.2 0.00 0.37 0.18 11 1009.8
20260903200048 56 190 0.9 4.3 0.00 0.39 0.18 4 1009.9
20260903194548 55 144 0.0 7.0 0.00 0.39 0.18 4 1010.0
20260903193044 55 257 0.9 12.2 0.01 0.39 0.18 8 1010.1
20260903191535 56 190 0.9 10.4 0.01 0.39 0.18 8 1010.1
20260903190032 56 16 1.7 6.1 0.01 0.49 0.18 4 1010.1
20260903184527 56 313 1.7 5.2 0.03 0.49 0.18 100 1010.0
20260903183022 55 203 0.0 6.1 0.03 0.48 0.17 100 1009.9
20260903181517 55 242 0.0 5.2 0.04 0.48 0.17 100 1010.1
20260903180012 55 194 0.9 7.0 0.06 0.53 0.17 100 1010.1
20260903174508 55 164 0.0 6.1 0.04 0.51 0.15 100 1010.1
20260903173004 55 182 0.0 5.2 0.03 0.50 0.14 100 1010.0
20260903171612 55 227 0.0 5.2 0.02 0.49 0.13 1 1010.2
20260903170104 55 152 0.0 5.2 0.00 0.52 0.11 9 1010.2
20260903164551 55 194 1.7 7.0 0.00 0.52 0.11 4 1010.0
20260903163046 55 206 0.9 6.1 0.00 0.52 0.11 100 1010.1
20260903161541 54 227 0.9 7.8 0.00 0.52 0.11 100 1010.2
20260903160044 54 314 0.9 6.1 0.00 0.52 0.11 100 1010.1
20260903154533 54 211 1.7 8.7 0.00 0.52 0.11 100 1010.2
20260903153029 53 207 0.9 6.1 0.00 0.52 0.11 100 1010.1
20260903151524 53 207 1.7 6.1 0.00 0.52 0.11 100 1010.0
20260903150019 52 207 0.9 7.0 0.00 0.52 0.11 100 1009.9
20260903144529 52 143 0.9 6.1 0.01 0.52 0.11 100 1009.9
20260903143012 52 213 0.0 2.6 0.06 0.52 0.11 100 1009.8
20260903141510 52 286 0.0 0.9 0.09 0.52 0.11 100 1009.9
20260903140002 52 281 0.0 0.9 0.10 0.52 0.11 100 1009.9
20260903134601 52 281 0.0 2.6 0.10 0.51 0.10 100 1010.1
20260903133053 53 287 0.0 2.6 0.05 0.46 0.05 100 1010.0
20260903131604 53 273 0.0 2.6 0.02 0.43 0.02 100 1010.0
20260903130048 53 237 0.9 6.1 0.01 0.42 0.01 100 1009.7
20260903124541 53 194 0.0 4.3 0.00 0.41 0.00 100 1009.6
20260903123042 53 196 1.7 6.1 0.00 0.41 0.00 100 1009.7
20260903121550 53 115 0.0 6.1 0.00 0.41 0.00 100 1009.7
20260903120026 53 200 1.7 4.3 0.00 0.41 0.00 100 1009.8
20260903114522 52 177 0.9 6.1 0.00 0.41 0.00 100 1009.8
20260903113018 53 205 0.0 6.1 0.00 0.41 0.00 100 1009.8
20260903111513 53 172 0.0 4.3 0.00 0.41 0.00 100 1009.9
20260903110008 53 175 0.0 3.5 0.00 0.41 0.00 100 1009.9
20260903104505 53 167 0.0 3.5 0.00 0.41 0.00 100 1010.0
20260903103102 53 266 0.9 6.1 0.00 0.41 0.00 100 1010.1
20260903101556 53 255 1.7 6.1 0.00 0.41 0.00 100 1010.2
20260903100052 53 222 0.9 6.1 0.00 0.41 0.00 100 1010.0
20260903094553 53 165 1.7 6.1 0.00 0.41 0.00 100 1010.0
20260903093052 53 225 1.7 6.1 0.00 0.41 0.00 100 1010.0
20260903091550 53 204 2.6 7.8 0.00 0.41 0.00 100 1010.1
20260903090033 53 217 0.0 5.2 0.00 0.41 0.00 100 1010.3
20260903084529 53 144 0.9 4.3 0.00 0.41 0.00 100 1010.3
20260903083025 53 313 0.0 2.6 0.00 0.41 0.00 100 1010.3
20260903081522 53 221 0.0 5.2 0.00 0.41 0.00 100 1010.5
20260903080015 53 208 0.9 6.1 0.00 0.41 0.00 100 1010.4
20260903074511 53 178 0.9 5.2 0.00 0.41 0.00 100 1010.4
20260903073017 53 246 0.9 6.1 0.00 0.41 0.00 100 1010.2
20260903071503 53 169 0.9 6.1 0.00 0.41 0.00 100 1010.2
20260903070059 53 163 0.9 6.1 0.00 0.41 0.41 100 1010.1
20260903064555 53 178 0.9 6.1 0.00 0.41 0.41 100 1010.1
20260903063051 53 235 0.9 2.6 0.00 0.41 0.41 100 1010.2
20260903061549 54 201 0.9 2.6 0.00 0.41 0.41 100 1010.3
20260903060053 54 217 0.0 4.3 0.00 0.41 0.41 100 1010.3
20260903054535 54 158 0.0 3.5 0.00 0.41 0.41 100 1010.2
20260903053035 54 168 1.7 6.1 0.00 0.41 0.41 100 1010.2
20260903051526 54 207 0.0 1.7 0.00 0.41 0.41 100 1010.2
20260903050022 54 211 0.9 5.2 0.00 0.41 0.41 100 1010.1
20260903044519 54 161 0.9 4.3 0.00 0.41 0.41 100 1010.0
20260903043019 54 256 0.9 4.3 0.00 0.41 0.41 100 1009.9
20260903041511 54 193 0.0 4.3 0.00 0.41 0.41 100 1009.8
20260903040010 54 102 0.9 5.2 0.00 0.41 0.41 100 1009.6
20260903034600 54 169 0.0 0.9 0.00 0.41 0.41 100 1009.6
20260903033056 54 162 0.0 0.9 0.00 0.41 0.41 100 1009.5